Miley Memorial Field Big Piney US
ICAO: KBPI
IATA: BPI
Category: Medium
Scheduled Services: No

Elevation: 6990 ft
TransAlt. 18000 ft.

Airport Communications:
ASOS:135.225
CASPER RDO:122.3
CTAF/UNICOM:122.8

KBPI Zoom In..

If you have problems with the map follow the link
https://www.worldairports.se/pages/airport.php?
ICAO=KBPI

Runways:

(A) RW 08 length 3301 ft width 60 ft
---- / hdg 77

(B) RW 13 length 6802 ft width 75 ft
---- / hdg 132

(C) RW 26 length 3301 ft width 60 ft
---- / hdg 257

(D) RW 31 length 6802 ft width 75 ft
---- / hdg 312

Location; KBPI
Day. 08 / Time. 17.53 Zulu
* Altimeter: 29.84
* Temperature: -08° c. -17.6°f.
* Wind from: 000° Speed 00 kn.
Dewpoint: -08° c.
Visibility: 10 Statute Miles.
Clouds: Few 4900 ft.

KBPI 081753Z AUTO 00000KT 10SM FEW049 M08/M08 A2984 RMK AO2 SLP142 60000 T10781078 11078 21083 55001


Wind - Calm.

 
 
jpsmedia worldairports.se 2019   terms of use